www.pogodaiklimat.ru

Погода и климат >> Архив погоды >> Россия >> Приморский край >> Партизанск


ПОГОДА в Партизанске

  • Прогноз погоды в Партизанске
  • Монитор погоды в Партизанске
  • Климат города

АРХИВ ПОГОДЫ в Партизанске

Время (UTC), дата Ветер
(напр.,м/с)
 
Видим.   Явления Облачность Т
(С)
Тd
(С)
f
(%)
Тe
(С)
Тes
(С)
Комфортность P
(гПа)
Po
(гПа)
Тmin
(С)
Tmax
(С)
R
(мм)
S
(см)
06 17.03 З 5 50 км 5/5 1000 м
[Cu med, cong]
+8.4 -11.2 24 +6 +7 1017.3 992.1
09 17.03 С 3 50 км ясно +5.9 -11.1 28 +4 +4 1018.3 992.9 +8.9
12 17.03 СЗ 2 50 км ясно +3.4 -11.4 33 +1 +1 1020.8 995.1
15 17.03 С 2 50 км ясно +0.1 -9.7 48 -3 -3 1021.9 995.8
18 17.03 СЗ 3 50 км ясно -1.5 -9.4 55 -6 -6 1021.9 995.7
21 17.03 С 2 50 км ясно -3.3 -9.6 62 -7 -7 1022.2 995.8 -3.4 0
00 18.03 С 2 50 км ясно +1.6 -8.1 48 -1 +5 1022.3 996.4 -3.5
03 18.03 СВ 1 50 км ясно +7.3 -10.7 27 +7 +21 опасность
простуды
1020.4 995.0
06 18.03 ЮЗ 6 50 км 8/1 1000 м
[Cu hum Ac lent Ci fib]
+7.4 -9.2 30 +4 +5 1018.6 993.3
09 18.03 Ю 3 50 км 10/0
[Ac lent Ci fib]
+3.5 -10.5 35 +1 +1 1020.0 994.3 +9.6
12 18.03 СЗ 1 50 км 8/0
[Ci fib]
+0.6 -9.9 45 -1 -1 1021.4 995.4
15 18.03 штиль 0 50 км 10/0
[Ci fib]
-0.1 -9.8 48 -1 -1 1022.0 995.9
18 18.03 С 2 50 км 10/0
[Ci fib]
-1.8 -8.6 60 -5 -5 1022.4 996.1
21 18.03 С 1 50 км 3/0
[Ac lent]
-0.5 -9.7 50 -2 -2 1022.9 996.7 -2.5 0
00 19.03 СВ 1 50 км ясно +1.3 -7.9 50 0 +7 1023.1 997.1 -2.6
03 19.03 Ю 3 50 км 1/1 1000 м
[Cu hum]
+8.6 -7.7 31 +7 +16 опасность
простуды
1021.1 995.9
06 19.03 СЗ 4 50 км 8/8 1000 м
[Cu med, cong Ac cuf]
+10.5 -11.1 21 +9 +10 1019.5 994.4
09 19.03 С 4
{13}
50 км ясно +7.7 -10.7 26 +5 +5 1021.0 995.6 +10.8
12 19.03 СЗ 2 50 км ясно +4.5 -9.3 36 +3 +3 1022.6 996.9
15 19.03 С 2 50 км ясно +2.3 -9.3 42 0 0 1023.5 997.6
18 19.03 С 1 50 км ясно -2.0 -7.9 64 -4 -4 1024.3 998.0
21 19.03 С 2 50 км ясно -2.0 -8.3 62 -5 -5 1023.3 997.0 -2.6 0
00 20.03 СВ 1 50 км 5/0
[Cs]
+1.6 -6.8 54 +1 +7 1021.8 995.9
03 20.03 Ю 3 50 км 10/0
[Ac As Cs]
+8.6 -6.8 33 +7 +11 1019.1 993.9
06 20.03 Ю 5 50 км 10/3 1000 м
[Sc Ac As Cs]
+9.8 -7.3 29 +7 +9 1015.3 990.3
09 20.03 Ю 3 50 км 10/3 1000 м
[Sc Ac As]
+7.2 -6.0 38 +5 +5 1014.2 989.0 +10.3
12 20.03 СЗ 6-10
{10}
10 км слабый дождь 10/0
[As op]
+3.6 -1.8 68 -2 -2 1014.3 988.8
15 20.03 СЗ 5
{12}
20 км в посл. час снег {дождь} 10/3 600 м
[Sc As op]
+1.2 -2.6 76 -4 -4 1013.4 987.7
18 20.03 СЗ 4
{11}
4000 м слабый ливневой снег 9/9 600 м
[Cb cap]
+0.6 -4.3 70 -4 -4 1011.8 986.0
21 20.03 С 4
{11}
20 км {ливн. осадки} 4/3 1000 м
[Sc Ci fib]
-0.1 -5.8 65 -5 -5 1011.7 985.9 -0.1 0.8 0
00 21.03 С 5
{12}
50 км {ливн. осадки} 6/6 600 м
[Cb cap]
+0.8 -5.7 62 -5 -3 1011.6 985.9 -0.3
03 21.03 -10
{10}
50 км н/о +3.0 -5.5 54 -2 +1 1010.8 985.3
06 21.03 С 7-11
{16}
50 км осадки на расстоянии 5/5 600 м
[Cb cap]
+4.8 -5.3 48 -0 +1 1010.1 984.7
09 21.03 С 8-15
{15}
50 км ясно +4.8 -7.6 40 -0 -0 1010.6 985.3 +5.6
12 21.03 СЗ 3
{15}
50 км ясно +3.5 -7.7 44 0 0 1012.3 986.8
15 21.03 СЗ 4
{10}
50 км 4/0
[Ac trans]
+3.3 -8.5 42 -1 -1 1012.9 987.3
18 21.03 С 2 50 км ясно +1.7 -9.2 44 -1 -1 1012.8 987.1
21 21.03 СЗ 4
{10}
50 км 8/6 600 м
[Cu med, cong Cc]
+1.4 -8.8 47 -3 -3 1014.0 988.3
00 22.03 СЗ 4 50 км 8/6 600 м
[Cu med, cong Cc]
+1.4 -8.8 47 -3 -2 1014.0 988.3
03 22.03 С 4
{13}
50 км 9/9 1000 м
[Cb cap]
+3.5 -11.3 33 -0 +1 1013.7 988.1
06 22.03 С 5
{14}
50 км 9/9 600 м
[Cb cap]
+3.9 -11.7 31 -0 0 1013.9 988.3
09 22.03 С 5
{12}
50 км 5/5 1000 м
[Cb cap Ci ing]
+1.2 -10.5 41 -4 -4 1016.1 990.3 +4.5
12 22.03 С 3
{10}
50 км ясно -0.4 -9.8 49 -4 -4 1019.0 992.9
15 22.03 С 3
{10}
50 км ясно -0.4 -9.8 49 -4 -4 1019.0 992.9
18 22.03 СВ 2 50 км ясно -4.4 -10.1 64 -8 -8 1019.5 993.1
21 22.03 З 1 50 км ясно -5.1 -9.9 69 -7 -7 1019.9 993.4 -5.7
00 23.03 ЮВ 1 50 км ясно +0.6 -7.8 53 -1 +7 1019.8 993.8
03 23.03 СЗ 4 50 км 10/8 1000 м
[Cb cap Ci ing]
+4.3 -11.2 31 +1 +2 1018.4 992.8
06 23.03 СЗ 4
{13}
50 км 6/5 1000 м
[Cb cap Ci ing]
+3.3 -12.2 31 -0 +2 1017.7 992.1
09 23.03 С 3
{11}
50 км 3/3 1000 м
[Sc diur, vesp]
+2.1 -14.6 28 -1 -1 1018.0 992.2 +4.7
12 23.03 СЗ 3 50 км ясно +0.6 -13.5 34 -3 -3 1020.0 994.0
15 23.03 СЗ 3 50 км ясно -0.7 -13.0 39 -5 -5 1020.9 994.8
18 23.03 СЗ 4 50 км 3/0
[Ci fib]
-1.4 -10.6 50 -6 -6 1020.6 994.4
21 23.03 С 4 50 км ясно -3.5 -10.0 61 -9 -9 1021.3 994.9 -3.9
00 24.03 С 3 50 км 1/0
[Ci fib]
+1.1 -10.1 43 -3 +3 1021.6 995.6

 

Местоположение метеостанции Партизанск (Приморский край, Россия): широта 43.15 долгота 133.00 высота над уровнем моря 208 м.

В архиве по умолчанию представлена погода в Партизанске за последнюю неделю. Архивные данные за месяц целиком и за предыдущие месяцы, начиная с января 2011 года, Вы можете получить, выбрав интересующий диапазон дат из раскрывающегося списка и нажав кнопку "Ввод!".

Внимание! Время в таблицах - всемирное. Для получения местного времени необходимо прибавить поправку, которая в Партизанске равна 10 ч.

Смотрите также архив погоды в соседних городах и на ближайших метеорологических станциях:

Погода в Находке (Приморский край, Россия) (42 км)
Погода в Лазо (Приморский край, Россия) (71 км)
Погода в Преображении (Приморский край, Россия) (78 км)
Погода в Владивостоке (Приморский край, Россия) (89 км)
Погода в Анучино (Приморский край, Россия) (91 км)
Погода в Тимирязевском (Приморский край, Россия) (120 км)
Погода в Чугуевке (Приморский край, Россия) (129 км)
Погода в Барабаше (Приморский край, Россия) (130 км)
Погода в Гамове (Приморский край, Россия) (160 км)
Погода в Хороль (Приморский край, Россия) (163 км)

Пояснения к столбцам:

Ветер - указаны скорость ветра в м/с - средняя за 10 мин, порывы в срок и между сроками (в фигурных скобках) и направление, откуда дует ветер: С - северный, СВ - северо-восточный, В - восточный, ЮВ - юго-восточный, Ю - южный, ЮЗ - юго-западный, З - западный, СЗ - северо-западный.
Видимость - горизонтальная дальность видимости в метрах или километрах. При видимости от 1 до 10 км при отсутствии осадков обычно наблюдается дымка, при ухудшении видимости до 1 км и менее - туман. В сухую погоду видимость может ухудшаться дымом, пылью или мглою.
Явления - указаны атмосферные явления, наблюдавшиеся в срок или в последний час перед сроком; фигурными скобками обозначены явления, наблюдавшиеся между сроками (за 1-3 часа до срока); квадратными скобками обозначены град или гололедные отложения с указанием их диаметра в мм.
Облачность - указаны через наклонную черту общая и нижняя облачность в баллах и высота нижней границы облаков в метрах; квадратными скобками обозначены формы облаков: Ci - перистые, Cs - перисто-слоистые, Cc - перисто-кучевые, Ac - высококучевые, As - высокослоистые, Sc - слоисто-кучевые, Ns - слоисто-дождевые, Cu - кучевые, Cb - кучево-дождевые. Подробнее классификацию облаков см. в Атласе облаков (PDF).
T - Температура воздуха - температура, измеренная на высоте 2 м над землей.
Td - Температура точки росы - температура, при понижении до которой содержащийся в воздухе водяной пар достигнет насыщения.
f - Относительная влажность воздуха - влажноcть воздуха, измеренная на высоте 2 м над землей.
Te - Эффективная температура - температура, которую ощущает одетый по сезону человек в тени. Характеристика душности погоды. При расчете учитывается влияние влажности воздуха и скорости ветра на теплоощущения человека.
Tes - Эффективная температура на солнце - температура, которую ощущает человек, с поправкой на солнечный нагрев. Характеристика знойности погоды. Зависит от высоты солнца над горизонтом, облачности и скорости ветра. Ночью, в пасмурную погоду, а также при ветре 12 м/с и более поправка равна нулю.
P - Атмосферное давление - приведенное к уровню моря атмосферное давление.
Po - Атмосферное давление - измеренное на уровне метеостанции атмосферное давление.
Tmin - Минимальная температура - минимум температуры воздуха на высоте 2 м над землей.
Tmax - Максимальная температура - максимум температуры воздуха на высоте 2 м над землей.
R - Количество осадков - Количество выпавших осадков, мм. При наведении курсора мыши на число - период времени, за который выпало указанное количество осадков.
S - Снежный покров - Высота снежного покрова, см. При наведении курсора мыши на число - состояние снежного покрова и степень покрытия местности в баллах.